Dewpoint
69 70 70 70 68 68 68 69 69 69 67 64 65 63 62 65 59 59 62 61 64 64 64 63 63 63 63 64 63 63 64 63 64
69 70 70 69 69 69 70 70 70 68 66 64 64 63 62 58 60 60 62 63 64 64 64 63 63 63 63 63 62 63 63 63 63
69 69 69 69 68 69 70 69 69 68 65 64 63 62 63 57 59 61 62 65 64 64 63 63 63 63 63 62 62 62 62 62 62
67 69 70 69 67 68 68 68 69 68 65 64 63 62 62 56 56 57 61 66 64 64 63 63 62 62 62 62 62 61 62 62 61
68 68 69 69 68 68 67 66 65 65 63 62 64 64 63 53 55 56 62 65 64 63 63 62 62 62 61 61 61 60 60 61 61
64 65 68 69 69 68 67 66 65 65 64 62 62 63 53 52 52 53 64 65 64 64 63 62 61 60 60 60 59 59 59 59 59
60 64 67 68 68 68 66 65 64 62 55 56 59 53 51 50 52 52 60 58 62 62 65 63 62 60 60 59 58 57 57 57 57
62 64 64 65 65 62 63 62 57 54 52 52 50 51 51 49 51 54 60 58 60 61 62 65 65 63 61 60 59 57 57 57 56
60 61 62 60 60 57 58 56 54 52 51 50 50 50 50 50 52 54 58 59 59 61 61 62 66 66 64 63 62 60 58 58 57
60 59 58 58 57 56 56 54 52 51 51 51 52 51 52 54 55 56 59 60 60 61 62 62 63 65 67 65 64 63 62 61 60
60 58 58 57 56 55 54 53 52 50 51 54 55 55 57 57 57 59 58 61 61 62 63 64 64 63 65 66 66 66 65 64 63
56 56 56 57 57 55 54 51 51 53 54 55 55 56 57 57 57 58 59 61 61 63 64 65 65 65 64 65 65 66 66 65 65
59 58 59 59 59 58 55 54 53 56 56 55 55 56 58 57 57 58 58 59 58 62 64 65 64 65 65 65 65 64 66 65 64
61 62 62 60 61 57 57 57 56 56 56 55 55 57 58 57 56 55 56 57 59 60 63 63 63 63 64 64 65 64 64 64 63
64 61 59 60 61 58 58 56 57 56 55 53 55 58 59 59 57 55 55 56 58 57 58 60 60 62 63 63 64 63 63 63 62
64 63 59 60 61 60 58 57 57 57 57 57 57 58 57 56 56 56 55 55 55 55 58 59 60 61 61 62 63 62 63 62 60
63 63 61 61 62 61 60 59 58 57 59 60 58 56 56 55 55 54 54 54 55 55 56 56 57 59 60 60 62 62 61 60 59
65 64 65 65 64 63 64 63 59 59 62 62 59 54 52 53 54 55 55 53 53 54 55 54 56 57 58 58 57 58 60 58 58
65 65 65 65 65 63 63 63 64 63 61 63 62 59 58 53 50 54 52 53 49 51 53 54 54 55 56 54 55 57 59 56 57
64 65 65 64 64 63 63 63 62 61 60 59 58 58 58 58 55 49 49 52 51 52 52 51 52 53 55 56 55 56 56 55 55
Lifted_Index
2 2 2 3 3 3 2 2 2 2 4 5 5 6 6 6 5 5 4 4 4 4 4 4 4 4 5 5 4 4 4 4 4
2 2 2 3 3 2 2 1 2 2 4 5 5 6 6 5 5 4 4 4 4 4 4 4 4 4 5 5 5 5 4 4 4
2 2 2 2 2 2 1 1 2 3 4 5 6 6 6 6 5 4 3 3 3 4 4 4 4 4 5 5 5 5 5 5 5
3 2 2 2 2 2 2 2 2 3 4 5 6 6 7 6 5 4 4 3 3 3 4 4 4 4 5 5 5 5 5 5 5
3 3 2 2 2 2 3 3 3 4 5 6 6 7 7 6 6 5 4 3 3 3 3 4 4 5 5 5 5 5 5 5 5
4 3 2 2 2 2 3 3 4 5 6 7 7 7 7 7 7 6 5 4 3 3 3 4 4 5 5 5 5 6 6 6 6
4 3 3 3 3 3 3 4 5 6 7 7 7 7 7 7 7 7 7 5 4 3 3 3 4 4 5 5 5 6 6 6 6
3 3 3 3 3 4 4 5 6 7 7 7 7 7 7 7 7 7 7 6 5 4 3 2 2 3 4 4 5 5 6 6 6
3 3 3 4 4 5 5 5 6 7 7 6 6 6 6 6 6 6 6 5 5 4 3 3 2 2 2 3 3 4 5 5 5
3 3 4 4 5 5 5 6 6 6 6 6 5 5 5 4 4 4 4 4 4 3 3 3 2 1 1 1 2 3 3 4 4
4 4 4 4 5 5 5 6 6 6 6 5 4 4 3 3 3 3 3 3 3 3 3 2 2 1 1 1 1 1 2 2 2
4 4 4 4 4 4 5 6 6 5 4 4 3 3 2 2 2 2 2 2 2 3 2 2 1 1 1 1 0 1 1 1 1
3 3 3 3 3 3 4 5 5 4 3 3 3 2 2 2 2 2 2 2 2 2 2 2 2 1 1 1 0 1 1 1 1
0 1 1 1 2 2 3 3 4 3 3 3 3 2 1 1 2 2 2 2 2 2 2 2 2 2 1 1 1 1 1 1 1
-2 -1 -0 0 1 1 2 3 3 3 3 3 2 1 1 1 2 2 2 3 2 2 2 2 2 2 1 1 1 1 1 1 2
-2 -2 -1 -0 -0 0 1 1 2 2 2 2 1 1 1 2 2 2 3 3 3 3 3 2 2 2 1 1 1 1 1 1 2
-2 -2 -1 -1 -1 -1 -1 0 1 1 1 0 0 1 1 2 2 3 3 4 4 4 3 3 3 2 2 2 1 1 1 2 2
-1 -2 -2 -1 -1 -1 -1 -1 -0 -0 -0 -1 -0 0 1 2 2 3 3 4 4 4 4 4 3 3 3 2 2 2 2 3 3
-1 -1 -1 -1 -0 -0 -0 -0 -0 -0 -0 -0 0 1 1 2 2 3 4 4 5 5 4 4 4 4 4 4 3 3 3 4 3
-0 -0 -1 -0 0 0 0 1 0 0 0 1 1 1 2 2 2 3 4 4 5 5 5 5 5 5 5 5 4 4 4 4 4